Hourly Data Report for September 06, 2017

All times are specified in Local Standard Time (LST). Add 1 hour to adjust for Daylight Saving Time where and when it is observed.

NAPPAN AUTO
NOVA SCOTIA

45°45'34.400" N
64°14'29.200" W
19.80 m
8203702
71311
XNP

Download Data

Hourly Data (September 2017)
Hourly Data Report for September 6, 2017
Temp Definition
°C
Dew Point Temp Definition
°C
Rel Hum Definition
%
Wind Dir Definition
10's deg

Wind Spd Definition
km/h
Visibility Definition
km
Stn Press Definition
kPa
Hmdx Definition


Wind Chill Definition


Weather Definition


TIME
00:00 18.5 16.8 90 18 18   101.10     LegendNANA
01:00 17.8 16.5 92 19 14   101.13     LegendNANA
02:00 18.5 16.7 89 19 15   101.13     LegendNANA
03:00 19.2 16.5 85 18 21   101.10     LegendNANA
04:00 19.3 16.6 85 19 20   101.13     LegendNANA
05:00 19.6 17.2 86 18 24   101.16     LegendNANA
06:00 20.5 17.7 84 18 25   101.23 26   LegendNANA
07:00 21.0 18.0 83 19 23   101.32 27   LegendNANA
08:00 22.0 18.6 81 19 26   101.33 28   LegendNANA
09:00 22.3 19.0 82 20 24   101.39 29   LegendNANA
10:00 23.5 19.3 77 19 22   101.41 31   LegendNANA
11:00 24.8 19.2 71 18 29   101.42 32   LegendNANA
12:00 25.8 19.0 66 19 32   101.43 33   LegendNANA
13:00 26.5 18.7 62 19 31   101.41 33   LegendNANA
14:00 27.9 19.1 59 18 31   101.33 35   LegendNANA
15:00 27.7 18.5 57 18 31   101.31 34   LegendNANA
16:00 26.7 18.6 61 18 28   101.29 33   LegendNANA
17:00 26.4 18.7 63 19 23   101.36 33   LegendNANA
18:00 22.2 18.5 80 33 4   101.40 29   LegendNANA
19:00 21.1 18.5 85 2 1   101.46 27   LegendNANA
20:00 20.5 18.5 88 23 7   101.52 27   LegendNANA
21:00 20.1 18.2 89 19 12   101.50 26   LegendNANA
22:00 19.8 18.1 90 15 7   101.47     LegendNANA
23:00 20.9 19.5 92 16 9   101.44 28   LegendNANA

Notes on Data Quality.

Legend

  • E = Estimated
  • M = Missing
  • NA = Not Available
  • ‡ = Partner data that is not subject to review by the National Climate Archives
Date modified: